EHI
2 4 6 7 6 5 4 3 3 3 3 3 1 0 0 0 0 0 0 0 0 1 1 1 1 0 0 0 0 0 0 0 0 0 0 0 0 0 0 0 0 0 0
2 5 7 7 6 5 4 4 3 3 3 3 2 1 1 1 0 0 0 0 0 0 1 1 1 1 0 0 0 0 0 0 0 0 0 0 0 0 0 0 0 0 0
4 5 6 5 4 4 5 4 4 3 3 3 3 3 2 2 1 0 0 0 0 0 0 1 1 1 0 0 0 0 0 0 0 0 0 0 0 0 0 0 0 0 0
4 4 4 4 3 3 4 3 3 3 3 4 4 4 3 3 1 0 0 0 0 0 0 0 1 1 1 1 0 0 0 0 0 0 0 0 0 0 0 0 0 0 0
3 3 3 4 4 4 3 2 3 3 3 3 4 3 3 2 1 0 0 0 1 1 1 1 1 2 2 2 1 0 0 0 0 0 0 0 0 0 0 0 0 0 0
3 3 4 4 5 5 4 2 2 3 3 3 3 3 3 1 1 0 0 0 1 2 1 1 1 3 3 3 2 1 0 0 0 0 0 0 0 0 0 0 0 0 0
3 3 3 4 4 4 3 1 2 2 3 3 3 3 3 1 0 0 0 0 0 1 1 0 1 3 3 3 3 2 1 0 0 0 0 0 0 0 0 0 0 0 0
3 3 3 3 3 3 1 0 1 1 1 2 3 3 3 2 1 1 0 0 0 0 0 0 2 3 3 3 3 2 1 0 0 0 0 0 0 0 0 1 0 0 0
3 3 3 3 3 2 1 0 0 0 0 1 1 2 3 3 3 2 1 0 0 0 0 0 1 2 3 3 3 2 1 0 0 0 0 0 0 0 0 0 0 0 0
3 3 3 3 2 1 0 0 0 0 0 0 0 1 2 2 2 2 1 0 0 0 0 0 0 1 2 2 2 1 0 0 0 0 0 0 0 0 0 0 0 0 0
2 3 3 2 1 0 0 0 0 0 0 0 0 0 0 1 1 1 0 0 0 0 1 1 1 1 1 1 1 0 0 0 0 0 0 0 0 0 0 1 1 1 0
1 2 2 1 0 0 0 0 0 0 0 0 0 0 0 0 0 0 0 0 0 0 1 2 2 1 1 0 0 0 0 0 0 0 0 0 0 0 0 1 3 3 2
1 2 1 0 0 0 0 0 0 0 0 0 0 0 0 0 0 0 0 0 0 0 1 2 2 1 0 0 0 0 0 0 0 0 0 0 0 0 0 1 4 5 4
2 2 1 0 0 0 0 0 0 0 0 0 0 0 0 0 0 0 0 0 1 1 0 1 1 0 0 0 0 0 0 0 0 0 0 0 0 0 0 1 3 5 5
2 1 0 0 0 0 0 0 0 0 0 0 0 0 0 0 0 0 0 0 1 1 0 0 0 0 0 0 0 0 0 0 0 0 0 0 0 0 0 0 2 4 5
1 0 0 0 0 0 0 0 0 0 0 0 0 0 0 0 0 0 0 0 1 1 0 0 0 0 0 0 0 0 0 0 0 0 0 0 0 0 0 1 2 3 4
0 0 0 0 0 0 0 0 0 0 0 0 0 0 0 0 0 0 0 0 0 0 0 0 0 0 0 0 0 0 0 0 0 0 0 0 0 0 0 2 3 3 3
0 0 0 0 0 0 0 0 0 0 0 0 0 0 0 0 0 0 0 0 0 0 0 0 0 0 0 0 0 0 0 0 0 0 0 0 0 0 0 1 2 3 3
0 0 0 0 0 0 0 0 0 0 0 0 0 0 0 0 0 0 0 0 0 0 0 0 0 0 0 0 0 0 0 0 0 0 0 0 0 0 0 0 1 2 1
0 0 0 0 0 0 0 0 0 0 0 0 0 0 0 0 0 0 0 0 0 0 0 0 0 0 0 0 0 0 0 0 0 0 0 0 0 0 0 0 0 0 0
0 0 0 0 0 0 0 0 0 0 0 0 0 0 0 0 0 0 0 0 0 0 0 0 0 0 0 0 0 0 0 0 0 0 0 0 0 0 0 0 0 0 0
0 0 0 0 0 0 0 0 0 0 0 0 0 0 0 0 0 0 0 0 0 0 0 0 0 0 0 0 0 0 0 0 0 0 0 0 0 0 0 0 0 0 0
0 0 0 0 0 0 0 0 0 0 0 0 0 0 0 0 0 0 0 0 0 0 0 0 0 0 0 0 0 0 0 0 0 0 0 0 0 0 0 0 0 0 0
0 0 0 0 0 0 0 0 0 0 0 0 0 0 0 0 0 0 0 0 0 0 0 0 0 0 0 0 0 0 0 0 0 0 0 0 0 0 0 0 0 0 0
0 0 0 0 0 0 0 0 0 0 0 0 0 0 0 0 0 0 0 0 0 0 0 0 0 0 0 0 0 0 0 0 0 0 0 0 0 0 0 0 0 0 0
0 0 0 0 0 0 0 0 0 0 0 0 0 0 0 0 0 0 0 0 0 0 0 0 0 0 0 0 0 0 0 0 0 0 0 0 0 0 0 0 0 0 0
Wind_Speed
4 5 5 6 7 8 8 9 10 10 11 12 12 12 12 13 13 13 13 14 14 14 15 15 15 15 15 16 16 15 15 15 15 15 15 15 15 15 15 14 12 10 15
6 6 6 7 8 8 9 9 10 11 11 11 12 12 12 13 13 13 13 13 14 14 14 15 15 15 15 15 15 14 14 14 13 13 13 12 14 14 15 14 13 10 14
6 6 6 7 9 9 10 10 11 11 11 11 12 12 13 14 14 14 14 13 14 14 14 14 14 14 14 14 14 13 14 13 12 11 11 7 9 14 14 14 14 14 14
6 6 6 9 9 10 11 11 11 11 12 12 12 13 13 14 14 14 14 14 14 14 14 14 14 14 14 14 13 13 13 13 13 11 7 7 7 13 14 13 13 13 13
6 6 7 10 10 10 11 11 11 12 12 12 12 13 13 14 14 14 14 14 14 13 14 14 14 14 14 13 13 13 13 13 12 10 7 7 6 12 13 13 13 13 13
6 6 7 10 10 11 11 11 11 11 12 12 12 13 13 13 14 14 14 14 14 14 13 14 14 14 13 13 13 13 12 12 10 7 7 7 6 12 13 13 13 13 13
6 6 6 10 10 10 10 11 11 11 11 12 12 12 13 13 13 13 13 14 14 14 14 14 14 14 13 13 13 13 12 11 8 7 7 7 8 13 12 12 12 12 12
6 7 6 8 9 9 10 10 10 10 11 11 11 12 12 12 12 13 13 13 14 14 14 14 13 13 13 13 13 13 13 11 9 8 7 7 11 13 12 12 12 12 12
6 6 5 5 6 9 10 10 10 10 10 10 11 11 11 12 12 12 13 13 13 13 13 13 13 13 13 13 13 12 12 12 8 6 7 6 11 12 12 11 12 12 11
6 5 5 5 5 5 5 8 10 10 10 10 10 10 10 11 11 11 11 12 12 12 12 12 12 12 12 12 12 11 11 9 6 6 5 7 12 12 12 11 11 11 11
5 4 4 5 5 5 5 6 7 8 8 8 7 9 8 5 5 6 9 11 11 11 11 11 10 10 10 9 10 10 8 4 5 5 5 9 11 11 11 11 11 10 10
5 4 4 5 5 4 4 4 3 4 4 4 3 4 3 4 4 6 8 9 9 9 9 9 9 8 7 4 6 8 4 5 4 4 5 11 11 11 11 11 11 10 10
5 4 4 4 5 4 3 3 2 2 2 3 4 4 3 3 3 4 3 4 4 5 4 5 5 4 4 4 4 4 4 4 3 4 6 11 11 10 10 10 11 11 10
6 5 4 4 4 4 4 3 3 2 2 2 3 4 3 2 3 2 2 2 2 2 3 3 3 4 4 5 4 4 4 3 3 3 5 10 10 11 11 10 10 11 10
6 6 5 4 5 4 4 3 3 3 3 3 3 3 4 3 2 2 2 2 3 2 3 3 3 4 4 4 4 5 4 4 3 3 3 9 10 9 10 10 10 10 10
7 7 6 5 5 5 4 3 3 3 3 3 3 4 4 3 2 2 3 3 3 2 3 3 3 3 3 3 4 4 3 3 3 4 3 5 9 9 9 9 9 9 9
8 7 7 6 5 5 5 4 3 3 3 3 3 3 4 3 3 2 2 3 2 2 3 3 3 3 3 3 4 4 3 3 3 3 3 3 4 7 9 9 9 8 8
8 8 7 6 6 5 4 4 3 3 3 3 2 3 3 3 3 3 2 2 2 2 2 2 2 3 3 3 3 3 3 2 3 3 3 3 3 4 6 9 8 8 7
8 8 8 7 6 5 5 4 4 3 3 3 3 2 3 3 3 3 2 2 2 2 2 2 3 3 3 3 3 2 2 2 2 3 3 4 3 3 3 6 9 8 7
8 8 8 7 6 6 5 4 3 3 3 3 2 2 3 2 3 3 2 2 2 2 2 2 3 3 2 2 3 3 2 1 2 2 3 3 3 4 4 4 4 5 7
7 8 8 8 7 5 4 4 3 3 2 2 2 3 3 3 2 2 2 2 2 2 2 3 2 2 2 2 2 2 2 1 2 2 2 2 3 3 3 3 3 3 3
8 8 9 8 7 6 4 3 3 3 2 2 2 2 3 3 2 2 2 2 2 2 2 3 2 2 1 2 1 1 2 2 3 2 1 2 2 2 3 3 3 3 2
8 8 8 8 7 6 5 4 4 3 2 2 2 2 2 3 2 2 2 2 2 2 2 1 1 2 0 1 1 1 1 1 2 2 1 2 2 2 2 2 2 2 3
6 6 7 7 7 6 6 5 6 4 4 3 3 2 2 3 3 2 2 2 2 2 1 1 1 1 1 0 1 1 0 1 0 2 2 1 2 2 2 2 2 2 2
5 6 6 7 6 6 6 6 5 4 3 3 3 3 3 3 3 3 2 2 2 2 2 1 1 1 0 1 0 1 1 1 1 1 2 2 2 2 2 2 2 1 1
5 5 5 6 6 6 5 5 5 5 5 5 4 4 3 2 2 3 2 2 2 2 2 1 1 0 0 0 0 0 1 1 1 1 2 3 3 3 3 2 2 1 1
Wind_Direction
98 103 98 88 88 85 81 76 74 73 70 69 70 69 70 68 68 67 65 64 63 61 60 60 60 59 57 57 57 56 56 57 59 59 58 57 58 60 60 58 60 60 65
108 112 105 96 93 88 86 83 81 76 72 72 73 72 71 69 68 68 67 66 65 63 61 60 60 59 58 57 56 54 54 54 55 56 57 54 55 58 60 58 60 63 65
106 112 111 100 96 91 89 88 84 80 76 74 75 75 72 71 69 67 66 65 66 64 62 61 60 59 58 56 54 52 50 47 47 50 54 54 56 58 60 58 59 62 65
109 112 109 104 99 94 91 89 86 82 79 76 75 75 73 72 70 68 66 64 65 64 63 62 61 59 57 55 52 49 46 43 45 45 51 52 51 58 58 58 58 60 62
105 104 109 109 104 97 92 89 88 84 81 78 78 77 75 72 70 68 66 65 64 64 63 63 62 60 56 53 50 46 43 43 41 40 47 51 49 58 58 56 55 58 61
103 100 110 110 106 100 95 90 87 84 80 78 78 79 77 74 71 68 66 65 64 63 62 63 61 59 55 52 48 44 42 42 38 40 44 46 49 58 59 57 55 56 58
99 98 110 108 107 102 98 93 88 83 80 78 77 77 77 75 72 70 67 65 63 61 60 61 61 59 54 51 47 43 40 43 47 47 44 42 49 58 58 58 56 56 56
100 102 107 105 102 100 97 93 91 86 82 78 78 77 76 74 72 70 67 65 63 61 59 58 58 57 54 50 46 42 39 43 46 44 46 43 50 56 58 58 57 56 58
94 98 102 107 104 98 93 89 87 85 83 79 78 78 76 74 72 70 67 65 64 61 59 58 57 55 51 47 43 40 41 44 43 37 44 44 47 53 57 58 57 55 57
97 99 105 105 102 98 94 91 85 82 81 80 77 76 75 72 70 68 65 63 62 61 60 58 56 55 51 45 39 37 39 44 46 42 36 44 49 52 53 56 55 56 57
104 104 107 107 104 103 102 96 87 82 77 78 77 76 73 66 68 69 64 61 59 59 58 56 55 53 48 41 35 34 36 47 49 49 37 45 50 51 52 53 53 56 57
132 125 115 114 110 107 106 100 90 83 75 67 70 72 66 65 65 74 66 62 58 55 53 51 48 45 39 30 29 32 40 40 48 51 40 46 49 51 54 54 52 54 59
141 131 119 119 117 113 105 104 90 81 70 60 63 64 69 71 71 67 63 59 51 48 38 36 35 31 33 31 30 34 39 38 43 49 43 46 48 50 54 55 55 55 59
146 141 125 119 118 113 109 107 97 87 80 65 55 53 64 72 67 69 63 52 43 36 29 25 25 31 32 29 33 37 38 42 45 47 48 47 44 45 48 53 54 54 54
153 148 138 125 123 116 105 106 100 91 85 77 68 54 57 70 73 74 69 54 41 38 34 23 28 27 26 23 29 34 35 38 44 48 51 49 44 43 43 43 47 50 51
158 153 142 132 126 122 113 107 101 95 90 82 68 60 59 64 66 69 69 56 40 32 32 32 31 29 25 23 23 24 29 33 47 53 54 45 42 40 39 37 37 43 47
158 149 144 139 131 127 121 114 104 97 93 86 75 65 58 64 68 73 73 63 40 33 39 37 34 36 34 26 18 11 22 37 45 49 51 48 39 36 35 33 30 33 39
151 150 150 149 141 136 125 119 111 108 103 96 89 79 64 64 75 79 79 68 48 46 45 42 43 36 33 25 13 4 12 31 50 53 54 49 45 38 33 32 27 27 30
154 150 150 146 146 142 130 122 116 114 106 102 96 86 71 64 74 80 81 75 61 61 55 44 44 44 41 26 8 1 11 26 40 54 55 54 47 43 37 28 26 26 27
151 151 151 149 148 143 133 124 118 112 106 104 101 96 91 72 74 84 87 77 73 73 61 55 54 42 54 32 13 7 1 24 45 60 56 49 43 43 36 24 17 13 19
155 156 159 156 154 149 147 146 142 141 129 115 112 111 104 91 79 84 85 85 79 79 76 77 75 63 45 29 28 2 351 34 71 65 65 63 45 39 32 24 25 13 4
168 164 162 162 159 161 157 151 144 139 136 128 118 114 107 107 100 104 101 104 90 88 77 79 78 57 34 30 40 15 357 353 28 28 29 55 44 28 21 18 22 16 8
174 170 167 166 162 161 149 133 129 122 121 122 134 139 133 124 114 110 118 121 105 97 103 93 101 78 60 350 34 86 92 291 332 323 349 29 33 17 357 3 14 11 11
172 164 161 163 162 161 154 153 156 159 162 168 160 159 147 135 129 122 126 126 118 106 105 106 77 71 115 29 353 12 129 168 202 313 313 337 351 347 336 337 345 352 0
161 160 163 159 160 161 162 163 167 163 157 145 148 157 161 156 151 146 142 145 145 134 128 103 55 40 113 187 225 320 344 342 241 224 279 308 322 313 320 310 307 319 322
154 157 161 162 163 162 164 167 172 168 162 161 165 168 167 164 165 157 149 150 156 152 155 160 169 184 228 253 264 246 225 219 260 253 265 292 295 293 300 291 288 284 284